This demonstration page uses our WeatherBlox Daily Observations layout. Learn more.

Left ArrowRight Arrow

34.02893, -84.19858

Hourly Observations for May 4, 2022

Temp ( °F °C ) Dew Point ( °F °C ) Humidity (%) Winds ( mph kmh ) Pressure ( in mb ) Visibility ( mi km ) Precip ( " mm )
12:53 am 00:53 Clear 71 21.7 62 16.7 73 73 S 3 6 29.98 1015 10 16 0.00 0.00
1:48 am 01:48 Mostly Cloudy with Nearby Thunderstorms 72 22 59 15 65 65 SW 20 31 30.02 1016 10 16 0.00 0.00
1:53 am 01:53 Mostly Cloudy with Nearby Thunderstorms 71 21.7 58 14.4 63 63 SW 17 28 30.00 1016 10 16 0.00 0.00
2:29 am 02:29 Cloudy with Thunderstorms 65 18.3 60 15.6 84 84 SW 10 17 30.03 1017 5 8 0.05 1.27
2:53 am 02:53 Cloudy with Thunderstorms 64 17.8 61 16.1 90 90 WSW 9 15 30.01 1016 8 13 0.08 2.03
3:20 am 03:20 Mostly Cloudy with Nearby Thunderstorms 64 17.8 62 16.7 93 93 S 6 9 30.02 1017 10 16 0.02 0.51
3:47 am 03:47 Cloudy with Heavy Rain 64 18 63 17 94 94 VRB 5 7 30.03 1017 3 4 0.13 3.30
3:48 am 03:48 Cloudy with Heavy Rain 64 17.8 62 16.7 93 93 VRB 5 7 30.00 1016 3 4 0.15 3.81
3:56 am 03:56 Cloudy with Thunderstorms 64 17.8 62 16.7 93 93 SSW 3 6 30.03 1017 3 5 0.00 0.00
4:13 am 04:13 Cloudy with Nearby Thunderstorms 64 17.8 62 16.7 93 93 SSW 5 7 30.02 1017 10 16 0.01 0.25
4:32 am 04:32 Cloudy with Thunderstorms 64 17.8 63 17.2 96 96 Calm 30.02 1017 6 10 0.03 0.76
4:40 am 04:40 Cloudy with Thunderstorms 64 17.8 63 17.2 96 96 VRB 5 7 30.01 1016 3 4 0.10 2.54
4:43 am 04:43 Cloudy with Nearby Thunderstorms 64 17.8 63 17.2 96 96 Calm 30.01 1016 4 6 0.10 2.54
4:53 am 04:53 Cloudy with Nearby Thunderstorms 64 17.8 63 17.2 96 96 Calm 29.99 1016 10 16 0.10 2.54
5:25 am 05:25 Cloudy with Nearby Thunderstorms 65 18.3 63 17.2 93 93 VRB 3 6 30.04 1017 10 16 0.00 0.00
5:33 am 05:33 Cloudy 64 17.8 63 17.2 96 96 Calm 30.04 1017 10 16 0.00 0.00
5:48 am 05:48 Mostly Cloudy 64 18 63 17 94 94 Calm 30.02 1017 10 16 0.00 0.00
5:53 am 05:53 Partly Cloudy 64 17.8 63 17.2 96 96 Calm 30.00 1016 9 14 0.00 0.00
6:17 am 06:17 Mostly Clear with Nearby Thunderstorms 63 17.2 63 17.2 100 100 Calm 30.02 1017 7 11 0.00 0.00
6:53 am 06:53 Mostly Cloudy with Thunderstorms 64 17.8 63 17.2 96 96 Calm 30.01 1016 5 8 0.00 0.00
7:13 am 07:13 Cloudy with Thunderstorms 65 18.3 63 17.2 93 93 VRB 6 9 30.06 1018 7 11 0.03 0.76
7:23 am 07:23 Cloudy with Nearby Thunderstorms 64 17.8 63 17.2 96 96 VRB 3 6 30.06 1018 4 6 0.07 1.78
7:40 am 07:40 Cloudy with Light Rain 65 18.3 64 17.8 97 97 S 3 6 30.06 1018 9 14 0.08 2.03
7:53 am 07:53 Cloudy with Light Rain 65 18.3 64 17.8 97 97 S 6 9 30.04 1017 6 10 0.08 2.03
8:07 am 08:07 Cloudy with Light Rain 65 18.3 65 18.3 100 100 Calm 30.06 1018 3 4 0.05 1.27
8:16 am 08:16 Mostly Cloudy 65 18.3 64 17.8 97 97 Calm 30.06 1018 8 13 0.05 1.27
8:53 am 08:53 Sunny 68 20 66 18.9 93 93 SW 3 6 30.04 1017 10 16 0.05 1.27
9:53 am 09:53 Sunny 73 22.8 67 19.4 81 81 WSW 8 13 30.03 1017 10 16 0.00 0.00
10:53 am 10:53 Mostly Sunny 74 23.3 68 20 82 82 VRB 3 6 30.03 1017 10 16 0.00 0.00
11:53 am 11:53 Mostly Sunny 78 25.6 69 20.6 74 74 undefined N/A 30.03 1017 10 16 0.00 0.00
12:53 pm 12:53 Mostly Cloudy 79 26.1 67 19.4 67 67 VRB 5 7 30.02 1017 10 16 0.00 0.00
1:53 pm 13:53 Mostly Sunny 82 27.8 65 18.3 56 56 W 7 11 30.00 1016 10 16 0.00 0.00
2:17 pm 14:17 Partly Cloudy with Nearby Thunderstorms 83 28.3 67 19.4 59 59 VRB 5 7 29.99 1015 10 16 0.00 0.00
2:33 pm 14:33 Partly Cloudy 83 28.3 65 18.3 55 55 W 9 15 29.99 1015 10 16 0.00 0.00
2:53 pm 14:53 Partly Cloudy 83 28.3 66 18.9 57 57 VRB 6 9 29.99 1016 10 16 0.00 0.00
3:53 pm 15:53 Sunny 84 28.9 64 17.8 51 51 W 9 15 29.98 1015 10 16 0.00 0.00
4:53 pm 16:53 Mostly Cloudy 83 28.3 64 17.8 53 53 NW 13 20 29.97 1015 10 16 0.00 0.00
5:04 pm 17:04 Mostly Cloudy with Nearby Thunderstorms 80 26.7 65 18.3 60 60 N 13 20 29.96 1015 10 16 0.00 0.00
5:17 pm 17:17 Mostly Cloudy with Thunderstorms 80 26.7 65 18.3 60 60 NW 8 13 29.96 1015 10 16 0.00 0.00
5:51 pm 17:51 Mostly Cloudy with Nearby Thunderstorms 75 24 66 19 74 74 S 7 11 29.97 1015 10 16 0.00 0.00
5:53 pm 17:53 Mostly Cloudy with Nearby Thunderstorms 76 24.4 67 19.4 74 74 S 6 9 29.98 1015 10 16 0.00 0.00
6:02 pm 18:02 Partly Cloudy 75 23.9 66 18.9 74 74 SSW 5 7 29.97 1015 10 16 0.00 0.00
6:53 pm 18:53 Sunny 79 26.1 66 18.9 65 65 W 5 7 29.97 1015 10 16 0.00 0.00
7:53 pm 19:53 Mostly Sunny 77 25 67 19.4 71 71 WNW 5 7 29.98 1015 10 16 0.00 0.00
8:53 pm 20:53 Clear 74 23.3 66 18.9 76 76 W 3 6 29.99 1016 10 16 0.00 0.00
9:53 pm 21:53 Mostly Clear 73 22.8 66 18.9 79 79 WNW 5 7 30.01 1016 10 16 0.00 0.00
10:53 pm 22:53 Clear 73 22.8 65 18.3 76 76 NW 5 7 30.03 1017 10 16 0.00 0.00
11:53 pm 23:53 Clear 70 21.1 65 18.3 84 84 W 5 7 30.02 1017 10 16 0.00 0.00

Powered by AerisWeather